Tracking 22458 objects as of 4-Mar-2021
HD Live streaming from Space Station
objects crossing your sky now

DELTA 1 DEB

Track DELTA 1 DEB now!
10-day predictions


NORAD ID: 10184
Int'l Code: 1977-065N
Perigee: 520.1 km
Apogee: 1,693.5 km
Inclination: 29.1 °
Period: 107.3 minutes
Semi major axis: 7477 km
RCS: 4.0516 m2 (large)
Launch date: July 14, 1977
Source: United States (US)
Launch site: AIR FORCE EASTERN TEST RANGE (AFETR)

Note: This is SATELLITE DEBRIS
aabbcc
Your satellite tracking list
Your tracking list is empty




NASA's NSSDC Master Catalog

Two Line Element Set (TLE):
1 10184U 77065N   21062.58244360  .00000204  00000-0  19555-4 0  9997
2 10184  29.0829  19.5761 0784590 240.5725 111.4304 13.42583065106911
Source of the keplerian elements: AFSPC